# Land Stadt Wetter Temperatur Luftdruck Luftfeuchtigkeit Sichtweite Windgeschwindigkeit Windrichtung Ortszeit
1 cl Santiago Clear 21 914 41 10000 0 0 02.08.2018 14:23
2 de Hannover Drizzle 7 943 96 3000 2 248 02.08.2018 14:21
3 ar Ushuaia Clouds 10 989 81 10000 9 140 02.08.2018 14:22
4 no Hammerfest Rain 2 989 80 10000 26 210 02.08.2018 14:22
5 is Reykjavik Snow -1 992 80 9000 50 250 02.08.2018 14:22
6 ru Anadyr Snow -26 997 75 9000 10 10 02.08.2018 14:23
7 no Oslo Clouds 0 999 61 10000 1 228 02.08.2018 14:23
8 ck Avarua Rain 27 1002 89 5000 33 300 02.08.2018 14:22
9 bg Sofia Clouds -4 1002 64 8000 26 300 02.08.2018 14:21
10 fi Rovaniemi Clear 1 1005 100 10000 26 230 02.08.2018 14:21
11 cn Lhasa Clouds -2 1005 48 10000 9 178 02.08.2018 14:22
12 au Alice Springs Clouds 28 1006 69 10000 13 80 02.08.2018 14:21
13 cd Kisangani Clouds 29 1006 51 10000 2 115 02.08.2018 14:23
14 fj Suva Clouds 25 1006 94 10000 4 0 02.08.2018 14:21
15 au Darwin Clouds 25 1007 91 10000 11 270 02.08.2018 14:22
16 us Fairbanks Clouds -14 1007 86 10000 0 0 02.08.2018 14:23
17 ar Esquel Clouds 13 1007 78 10000 16 297 02.08.2018 14:22
18 gl Nuuk Clouds -8 1007 84 10000 12 136 02.08.2018 14:22
19 pg Port Moresby Clouds 25 1008 85 10000 6 25 02.08.2018 14:21
20 au Perth Clear 24 1008 72 10000 24 210 02.08.2018 14:21
21 ca Montreal Clouds -8 1008 70 10000 6 170 02.08.2018 14:22
22 us Nome Clouds -22 1008 99 10000 10 61 02.08.2018 14:23
23 ph Manila Clouds 27 1009 73 10000 10 107 02.08.2018 14:21
24 th Bangkok Clear 28 1009 58 10000 17 178 02.08.2018 14:21
25 id Jakarta Clouds 28 1009 72 6000 7 220 02.08.2018 14:22
26 mv Male Clouds 29 1009 74 10000 9 350 02.08.2018 14:23
27 tr Ankara Snow -2 1009 66 10000 17 310 02.08.2018 14:23
28 sb Honiara Clouds 27 1009 85 10000 6 245 02.08.2018 14:22
29 uy Montevideo Clouds 25 1010 88 10000 13 120 02.08.2018 14:22
30 ec San Cristobal Clouds 24 1010 88 10000 24 140 02.08.2018 14:22
31 ar Buenos Aires Clouds 24 1011 79 10000 6 290 02.08.2018 14:22
32 vn Hanoi Clear 22 1011 93 10000 11 140 02.08.2018 14:21
33 in Nagpur Haze 20 1011 42 4000 9 310 02.08.2018 14:21
34 es Madrid Clouds 9 1012 63 10000 6 113 02.08.2018 14:23
35 us Chicago Snow -8 1012 86 8047 18 13 02.08.2018 14:23
36 mx Mexiko Stadt Clouds 10 1013 80 10000 3 79 02.08.2018 14:21
37 br Manaus Clouds 25 1013 94 10000 7 100 02.08.2018 14:21
38 in Mumbai Smoke 21 1013 56 2500 13 330 02.08.2018 14:22
39 za Kapstadt Clear 30 1013 59 10000 17 140 02.08.2018 14:22
40 in Jagatsukh Clouds 3 1013 98 104 7 222 02.08.2018 14:22
41 mg Antananarivo Rain 21 1013 78 10000 30 100 02.08.2018 14:21
42 nz Wellington Haze 15 1014 87 3500 2 260 02.08.2018 14:23
43 jp Tokio Rain 6 1014 62 10000 7 350 02.08.2018 14:22
44 au Sydney Clouds 19 1014 93 10000 8 290 02.08.2018 14:22
45 jp Nagasaki Clouds 9 1014 100 10000 17 20 02.08.2018 14:21
46 et Addis Abeba Clouds 18 1014 33 10000 18 122 02.08.2018 14:23
47 cn Shanghai Rain 9 1014 81 10000 2 28 02.08.2018 14:21
48 us New York Clouds -3 1015 49 10000 2 182 02.08.2018 14:22
49 tr Alanya Clouds 11 1015 56 10000 34 250 02.08.2018 14:22
50 br Rio de Janeiro Clear 30 1016 59 10000 9 150 02.08.2018 14:22
51 bo Potisi Clouds 7 1017 72 10000 1 54 02.08.2018 14:22
52 do Santo Domingo Clouds 25 1017 83 10000 5 97 02.08.2018 14:21
53 us Honolulu Clear 22 1017 77 10000 5 102 02.08.2018 14:22
54 sa Riad Clear 18 1017 23 10000 15 124 02.08.2018 14:21
55 ke Nairobi Clouds 25 1017 41 10000 19 60 02.08.2018 14:22
56 eg Kairo Clouds 16 1017 54 10000 20 290 02.08.2018 14:22
57 bs Nassau Clouds 24 1017 78 10000 15 320 02.08.2018 14:22
58 ae Dubai Clouds 20 1018 49 10000 19 310 02.08.2018 14:21
59 us Tucson Clear 8 1018 66 10000 8 121 02.08.2018 14:21
60 pt Lissabon Clear 14 1018 57 10000 17 50 02.08.2018 14:22
61 iq Bagdad Clear 13 1018 33 10000 13 110 02.08.2018 14:22
62 mn Ulaanbaatar Clouds -18 1018 78 8000 4 0 02.08.2018 14:23
63 us Miami Clouds 15 1018 91 10000 11 300 02.08.2018 14:23
64 ru Amderma Clouds -14 1018 90 4438 37 207 02.08.2018 14:23
65 ma Marrakesch Clouds 23 1019 33 8000 13 330 02.08.2018 14:23
66 ma Casablanca Clear 22 1019 64 6000 21 320 02.08.2018 14:23
67 qa Doha Clear 18 1019 34 10000 11 310 02.08.2018 14:23
68 gr Athen Clouds 5 1020 48 10000 10 90 02.08.2018 14:22
69 bg Warna Clouds 1 1020 69 10000 24 320 02.08.2018 14:21
70 tr Istanbul Clouds 0 1020 74 10000 39 350 02.08.2018 14:23
71 es Las Palmas de Gran Canaria Clouds 20 1020 68 10000 8 99 02.08.2018 14:21
72 us Los Angeles Clear 13 1021 40 10000 0 0 02.08.2018 14:22
73 kr Seoul Clear -2 1021 72 6000 4 330 02.08.2018 14:21
74 es Sevilla Clear 17 1021 54 10000 10 79 02.08.2018 14:22
75 mx Veracruz Clouds 19 1021 82 10000 9 340 02.08.2018 14:21
76 fi Helsinki Mist 1 1022 87 3500 5 239 02.08.2018 14:21
77 se Stockholm Clear 1 1022 88 10000 9 250 02.08.2018 14:23
78 es Tarifa Clouds 15 1022 77 10000 41 92 02.08.2018 14:21
79 de Berlin Clouds 6 1023 94 10000 10 298 02.08.2018 14:21
80 ad Andorra la Vella Clear 8 1023 40 10000 7 193 02.08.2018 14:22
81 de Dresden Clouds 5 1024 92 10000 13 300 02.08.2018 14:22
82 ua Kiew Clouds -4 1024 73 10000 21 10 02.08.2018 14:21
83 ru Jakutsk Snow -27 1024 75 10000 6 10 02.08.2018 14:22
84 us Las Vegas Clear 7 1025 37 10000 2 229 02.08.2018 14:21
85 af Kabul Clear -8 1025 69 10000 10 217 02.08.2018 14:21
86 us Denver Clouds -2 1026 65 10000 9 213 02.08.2018 14:21
87 ru Werchojansk Clouds -35 1026 100 5226 2 199 02.08.2018 14:22
88 us Death Valley Clear 13 1026 32 10000 11 355 02.08.2018 14:22
89 fr Bordeaux Clear 10 1027 60 10000 9 60 02.08.2018 14:21
90 fr Nizza Clouds 13 1027 70 10000 7 180 02.08.2018 14:22
91 es Barcelona Clouds 12 1027 64 10000 3 188 02.08.2018 14:22
92 es Palma de Mallorca Clouds 13 1027 56 10000 3 208 02.08.2018 14:22
93 de Braunschweig Clouds 6 1027 97 3600 6 0 02.08.2018 14:21
94 it Rom Clear 13 1028 51 10000 3 240 02.08.2018 14:23
95 it Palermo Clear 12 1028 44 10000 16 44 02.08.2018 14:22
96 ch Andermatt Clear 2 1028 60 10000 5 38 02.08.2018 14:23
97 de Köln Clouds 6 1029 81 9000 2 54 02.08.2018 14:21
98 gb Glasgow Clouds 7 1029 78 10000 22 220 02.08.2018 14:21
99 de Magdeburg Clouds 7 1029 89 10000 6 306 02.08.2018 14:22
100 it Mailand Mist 7 1029 73 4000 3 186 02.08.2018 14:21
101 cn Peking Clouds -2 1030 67 10000 1 287 02.08.2018 14:23
102 ch Bern Clear 3 1030 74 10000 11 280 02.08.2018 14:23
103 at Wien Clouds 3 1031 88 2500 5 284 02.08.2018 14:22
104 de Hiddensee Clouds 7 1031 93 10000 15 276 02.08.2018 14:21
105 de Freiburg Clouds 6 1031 74 10000 3 102 02.08.2018 14:22
106 ie Dublin Clouds 7 1031 76 10000 10 234 02.08.2018 14:21
107 pe Cusco Clouds 13 1031 62 10000 7 80 02.08.2018 14:23
108 de Flensburg Clouds 7 1032 87 10000 22 280 02.08.2018 14:21
109 gb Manchester Clouds 5 1032 84 10000 3 337 02.08.2018 14:21
110 de Oberstdorf Clouds 2 1032 85 10000 6 41 02.08.2018 14:21
111 ru Moskau Clouds -4 1032 99 6519 4 44 02.08.2018 14:22
112 de Hamburg Clouds 8 1033 93 10000 24 310 02.08.2018 14:21
113 at Innsbruck Clouds 4 1033 83 10000 9 170 02.08.2018 14:23
114 de Helgoland Clouds 7 1033 86 10000 19 262 02.08.2018 14:22
115 de Stuttgart Clouds 5 1033 81 10000 7 50 02.08.2018 14:22
116 ru Surgut Snow -12 1033 85 10000 4 230 02.08.2018 14:23
117 fr Paris Clouds 4 1033 86 10000 3 68 02.08.2018 14:22
118 de Bremen Clouds 7 1034 94 10000 9 273 02.08.2018 14:22
119 de München Clouds 3 1034 87 10000 5 37 02.08.2018 14:21
120 de Emden Clouds 6 1034 90 10000 8 236 02.08.2018 14:21
121 de Nürnberg Clouds 4 1034 84 10000 7 10 02.08.2018 14:21
122 de Kassel Clouds 6 1034 87 10000 13 310 02.08.2018 14:21
123 de Trier Clouds 5 1034 75 10000 10 80 02.08.2018 14:21
124 gb London Clouds 6 1035 76 10000 2 119 02.08.2018 14:22
125 de Torfhaus Clouds 2 1035 92 8871 5 296 02.08.2018 14:22
126 de Frankfurt Clouds 7 1035 72 10000 4 0 02.08.2018 14:22
127 bo La Paz Clouds 13 1037 71 10000 9 170 02.08.2018 14:22
128 mn Uliastai Clouds -25 1047 97 3385 9 77 02.08.2018 14:23